Ely, MN

5:15 PM CDT on September 20, 2017 (GMT -0500)
Ely Municipal

Weather History for KELO - October, 2011

Change the Weather History Date:

Tuesday, October 18, 2011

  Actual Average Record
Temperature  
Mean Temperature 35 °F -  
Max Temperature 37 °F 48 °F 64 °F (1997)
Min Temperature 33 °F 32 °F 19 °F (2015)
Degree Days  
Heating Degree Days 30    
Moisture  
Dew Point 31 °F    
Average Humidity 84    
Maximum Humidity 93    
Minimum Humidity 75    
Precipitation  
Precipitation 0.00 in - - ()
Sea Level Pressure  
Sea Level Pressure 29.91 in    
Wind  
Wind Speed 7 mph (NW)    
Max Wind Speed 10 mph    
Max Gust Speed 18 mph    
Visibility 9 miles    
Events Rain , Snow    
Averages and records for this station are not official NWS values.
T = Trace of Precipitation, MM = Missing Value Source: NWS Daily Summary

Daily Weather History Graph

Daily Weather History Graph

Search for Another Location

Airport or City:

Trip Planner

Search our weather history database for the weather conditions in past years. The results will help you decide how hot, cold, wet, or windy it might be!

Date:

Astronomy

Oct. 18, 2011 Rise Set
Actual Time 7:30 AM CDT 6:13 PM CDT
Civil Twilight 6:59 AM CDT 6:45 PM CDT
Nautical Twilight 6:23 AM CDT 7:20 PM CDT
Astronomical Twilight 5:47 AM CDT 7:56 PM CDT
Moon 10:40 PM CDT (10/18) 1:37 PM CDT (10/18)
Length of Visible Light 11h 46m
Length of Day
10h 43m
Waning Gibbous, 64% of the Moon is Illuminated
Oct 18
Waning Gibbous
Oct 19
Last Quarter
Oct 26
New
Nov 2
First Quarter
Nov 10
Full

Hourly Weather History & Observations

Time (CDT) Temp. Windchill Dew Point Humidity Pressure Visibility Wind Dir Wind Speed Gust Speed Precip Events Conditions
12:12 AM 35.6 °F 31.7 °F 33.8 °F 93% 29.79 in 5.0 mi WNW 4.6 mph - N/A   Overcast
12:33 AM 35.6 °F 29.9 °F 33.8 °F 93% 29.79 in 5.0 mi NW 6.9 mph - N/A   Light Drizzle
12:52 AM 35.6 °F 29.2 °F 33.8 °F 93% 29.80 in 10.0 mi WNW 8.1 mph - N/A   Overcast
1:12 AM 35.6 °F 29.9 °F 32.0 °F 87% 29.80 in 10.0 mi NNW 6.9 mph - N/A   Overcast
1:33 AM 35.6 °F 31.7 °F 32.0 °F 87% 29.80 in 10.0 mi NNW 4.6 mph - N/A   Overcast
1:52 AM 35.6 °F 30.7 °F 33.8 °F 93% 29.81 in 10.0 mi NW 5.8 mph - N/A   Overcast
2:12 AM 35.6 °F 31.7 °F 33.8 °F 93% 29.81 in 10.0 mi NW 4.6 mph - N/A   Overcast
2:33 AM 35.6 °F 32.8 °F 33.8 °F 93% 29.81 in 10.0 mi WNW 3.5 mph - N/A   Overcast
2:52 AM 35.6 °F 29.2 °F 33.8 °F 93% 29.81 in 7.0 mi NW 8.1 mph - N/A   Overcast
3:12 AM 35.6 °F 28.6 °F 32.0 °F 87% 29.82 in 10.0 mi NW 9.2 mph - N/A   Overcast
3:33 AM 35.6 °F 30.7 °F 32.0 °F 87% 29.82 in 10.0 mi NW 5.8 mph - N/A   Overcast
3:52 AM 35.6 °F 28.6 °F 32.0 °F 87% 29.82 in 10.0 mi NW 9.2 mph - N/A   Overcast
4:12 AM 35.6 °F 28.0 °F 30.2 °F 81% 29.83 in 10.0 mi NNW 10.4 mph 17.3 mph N/A   Overcast
4:32 AM 35.6 °F 29.9 °F 30.2 °F 81% 29.84 in 10.0 mi NW 6.9 mph - N/A   Overcast
4:53 AM 35.6 °F 29.9 °F 30.2 °F 81% 29.85 in 10.0 mi NW 6.9 mph - N/A Rain Light Rain
5:13 AM 35.6 °F 28.6 °F 32.0 °F 87% 29.85 in 5.0 mi NW 9.2 mph - N/A Rain Rain
5:32 AM 33.8 °F 26.4 °F 30.2 °F 87% 29.85 in 10.0 mi NW 9.2 mph 16.1 mph N/A   Light Drizzle
5:53 AM 33.8 °F 27.7 °F 30.2 °F 87% 29.86 in 10.0 mi NW 6.9 mph - N/A   Overcast
6:13 AM 33.8 °F 27.7 °F 30.2 °F 87% 29.86 in 10.0 mi NW 6.9 mph - N/A Snow Light Snow
6:32 AM 33.8 °F 27.0 °F 30.2 °F 87% 29.87 in 7.0 mi NW 8.1 mph - N/A Rain Light Rain
6:53 AM 33.8 °F 29.6 °F 30.2 °F 87% 29.87 in 10.0 mi NW 4.6 mph - N/A   Overcast
7:12 AM 33.8 °F 29.6 °F 30.2 °F 87% 29.87 in 10.0 mi NW 4.6 mph - N/A   Overcast
7:32 AM 33.8 °F 27.7 °F 30.2 °F 87% 29.88 in 10.0 mi NW 6.9 mph - N/A   Overcast
7:53 AM 33.8 °F 28.6 °F 30.2 °F 87% 29.89 in 10.0 mi NW 5.8 mph - N/A   Overcast
8:13 AM 33.8 °F 28.6 °F 30.2 °F 87% 29.89 in 10.0 mi NNW 5.8 mph - N/A   Overcast
8:33 AM 33.8 °F 28.6 °F 30.2 °F 87% 29.90 in 10.0 mi NW 5.8 mph - N/A   Overcast
8:53 AM 33.8 °F 25.8 °F 30.2 °F 87% 29.91 in 10.0 mi NW 10.4 mph - N/A   Overcast
9:12 AM 33.8 °F 27.7 °F 30.2 °F 87% 29.92 in 10.0 mi NW 6.9 mph - N/A   Overcast
9:33 AM 35.6 °F 28.0 °F 30.2 °F 81% 29.92 in 10.0 mi NW 10.4 mph - N/A   Overcast
9:53 AM 35.6 °F 29.2 °F 30.2 °F 81% 29.93 in 10.0 mi NNW 8.1 mph - N/A   Overcast
10:12 AM 35.6 °F 29.2 °F 30.2 °F 81% 29.93 in 10.0 mi NW 8.1 mph - N/A   Overcast
10:33 AM 35.6 °F 28.0 °F 30.2 °F 81% 29.94 in 10.0 mi NW 10.4 mph - N/A   Overcast
10:53 AM 35.6 °F 29.2 °F 30.2 °F 81% 29.95 in 10.0 mi NW 8.1 mph - N/A   Overcast
11:12 AM 35.6 °F 30.7 °F 30.2 °F 81% 29.95 in 10.0 mi NW 5.8 mph - N/A Snow Light Snow
11:33 AM 35.6 °F 28.6 °F 30.2 °F 81% 29.95 in 10.0 mi NW 9.2 mph - N/A Snow Light Snow
11:53 AM 35.6 °F 31.7 °F 30.2 °F 81% 29.95 in 10.0 mi NW 4.6 mph - N/A   Overcast
12:12 PM 35.6 °F 29.2 °F 32.0 °F 87% 29.95 in 7.0 mi WNW 8.1 mph - N/A Rain Light Rain
12:33 PM 37.4 °F 32.1 °F 32.0 °F 81% 29.96 in 10.0 mi NNW 6.9 mph - N/A   Overcast
12:52 PM 35.6 °F 29.9 °F 32.0 °F 87% 29.96 in 7.0 mi NW 6.9 mph - N/A Rain Light Rain
1:12 PM 37.4 °F 30.3 °F 30.2 °F 75% 29.95 in 10.0 mi NW 10.4 mph 18.4 mph N/A   Overcast
1:33 PM 37.4 °F 31.4 °F 30.2 °F 75% 29.95 in 10.0 mi NW 8.1 mph - N/A   Overcast
1:53 PM 37.4 °F 31.4 °F 30.2 °F 75% 29.95 in 10.0 mi NNW 8.1 mph - N/A   Overcast
2:12 PM 37.4 °F 31.4 °F 32.0 °F 81% 29.96 in 7.0 mi NW 8.1 mph - N/A   Overcast
2:33 PM 35.6 °F 29.9 °F 33.8 °F 93% 29.96 in 3.0 mi NNW 6.9 mph - N/A   Drizzle
2:52 PM 37.4 °F 32.1 °F 33.8 °F 87% 29.96 in 10.0 mi NW 6.9 mph - N/A   Overcast
3:12 PM 37.4 °F 30.8 °F 32.0 °F 81% 29.96 in 10.0 mi NW 9.2 mph - N/A   Overcast
3:33 PM 37.4 °F 32.1 °F 32.0 °F 81% 29.96 in 10.0 mi NNW 6.9 mph - N/A   Overcast
3:53 PM 37.4 °F 32.8 °F 32.0 °F 81% 29.97 in 10.0 mi NW 5.8 mph - N/A   Overcast
4:12 PM 37.4 °F 32.1 °F 30.2 °F 75% 29.97 in 10.0 mi NNW 6.9 mph - N/A   Overcast
4:33 PM 37.4 °F 31.4 °F 30.2 °F 75% 29.97 in 10.0 mi NNW 8.1 mph - N/A   Overcast
4:52 PM 37.4 °F 31.4 °F 30.2 °F 75% 29.97 in 10.0 mi NW 8.1 mph 16.1 mph N/A   Overcast
5:12 PM 37.4 °F 30.3 °F 30.2 °F 75% 29.98 in 10.0 mi NW 10.4 mph 16.1 mph N/A   Overcast
5:33 PM 37.4 °F 32.8 °F 30.2 °F 75% 29.98 in 10.0 mi NW 5.8 mph - N/A   Overcast
5:53 PM 37.4 °F 32.8 °F 30.2 °F 75% 29.99 in 10.0 mi NNW 5.8 mph - N/A   Overcast
6:12 PM 35.6 °F 32.8 °F 30.2 °F 81% 29.99 in 10.0 mi NW 3.5 mph - N/A   Overcast
6:33 PM 35.6 °F 29.2 °F 30.2 °F 81% 30.00 in 10.0 mi NNW 8.1 mph - N/A   Overcast
6:52 PM 35.6 °F 31.7 °F 30.2 °F 81% 30.01 in 10.0 mi NW 4.6 mph - N/A   Overcast
7:12 PM 35.6 °F 30.7 °F 32.0 °F 87% 30.02 in 5.0 mi NNW 5.8 mph - N/A   Drizzle
7:33 PM 33.8 °F 30.8 °F 30.2 °F 87% 30.02 in 7.0 mi NNW 3.5 mph - N/A Rain Rain
7:53 PM 33.8 °F 28.6 °F 30.2 °F 87% 30.03 in 7.0 mi NNW 5.8 mph - N/A   Overcast
8:12 PM 33.8 °F 29.6 °F 30.2 °F 87% 30.03 in 10.0 mi NNW 4.6 mph - N/A   Overcast
8:33 PM 33.8 °F 30.8 °F 30.2 °F 87% 30.03 in 10.0 mi NNW 3.5 mph - N/A   Overcast
8:53 PM 33.8 °F 28.6 °F 30.2 °F 87% 30.04 in 10.0 mi NNW 5.8 mph - N/A   Overcast
9:12 PM 33.8 °F 29.6 °F 30.2 °F 87% 30.04 in 10.0 mi NNW 4.6 mph - N/A   Overcast
9:33 PM 33.8 °F - 30.2 °F 87% 30.04 in 10.0 mi Calm Calm - N/A   Overcast
9:52 PM 33.8 °F 30.8 °F 30.2 °F 87% 30.04 in 10.0 mi NNW 3.5 mph - N/A   Overcast
10:13 PM 33.8 °F 29.6 °F 30.2 °F 87% 30.04 in 10.0 mi North 4.6 mph - N/A   Overcast
10:33 PM 35.6 °F 31.7 °F 30.2 °F 81% 30.04 in 10.0 mi North 4.6 mph - N/A   Overcast
10:52 PM 33.8 °F 30.8 °F 30.2 °F 87% 30.04 in 10.0 mi NNW 3.5 mph - N/A   Overcast
11:13 PM 33.8 °F 30.8 °F 30.2 °F 87% 30.04 in 10.0 mi North 3.5 mph - N/A   Overcast
11:33 PM 33.8 °F 28.6 °F 30.2 °F 87% 30.05 in 10.0 mi North 5.8 mph - N/A   Overcast
11:52 PM 33.8 °F - 30.2 °F 87% 30.04 in 10.0 mi Calm Calm - N/A   Overcast